Location: Ocean City
(38.3360°N, 75.0850°W)
Time: 03:42:10
(UTC-04:00)

MOZHAYETS 4 - Pass Details

Date: 20 May 2019
Orbit: 661 x 681 km, 98.0° (Epoch: 26 June)

Event Time Altitude Azimuth Distance (km) Brightness Sun altitude
Exits shadow 03:29:42 54° 242° (WSW) 820 7.8 -21.6°
Maximum altitude 03:30:01 56° 260° (W) 809 7.8 -21.5°
Drops below altitude 10° 03:34:34 10° 338° (NNW) 2,115 10.6 -21.0°
Sets 03:36:51 0° 343° (NNW) 3,030 11.6 -20.7°
